Home > Weather > Riffa > Past weeks

Flag for Bahrain Past Weather in Riffa, Bahrain — Yesterday and Last 2 Weeks

Now
91 °F

Passing clouds.


Feels Like: 105 °F
Forecast: 90 / 105 °F
Wind: 6 mph from South

Location: Bahrain International Airport

Current Time: Jun 26, 2016 at 2:10:11 AM

Latest Report: Jun 26, 2016 at 1:00 AM


Visibility: N/A

Pressure: 29.47 "Hg

Humidity: 63%

Dew Point: 77 °F

Location of RiffaLocation

Past Weather in Riffa — Graph

°F

Riffa Temperature Yesterday

Maximum temperature yesterday: 106 °F (at 12:00 PM)
Minimum temperature yesterday: 91 °F (at 4:00 AM)
Average temperature yesterday: 96 °F

High & Low Weather Summary for the Past Weeks

 TemperatureHumidityPressure
High109 °F (Jun 24, 1:00 PM)75% (Jun 16, 8:00 PM)29.68 "Hg (Jun 16, 8:00 PM)
Low84 °F (Jun 17, 3:00 AM)12% (Jun 24, 1:00 PM)29.45 "Hg (Jun 16, 2:00 AM)
Average94 °F42%29.56 "Hg
* Reported Jun 11 1:00 AM — Jun 26 1:00 AM, Riffa, Weather by CustomWeather, © 2016

Note: Actual official high and low records may vary slightly from our data, if they occured in-between our weather recording intervals... More about our weather records

Advertising

Riffa Weather History for the Previous 24 Hours

Scroll right to see more
 ConditionsComfort  
Time TempWeatherWind HumidityBarometerVisibility
1:00 AM
Sun, Jun 26
91 °FPassing clouds.6 mph63%29.47 "HgN/A
12:00 AM91 °FPassing clouds.7 mph63%29.50 "HgN/A
11:00 PM
Sat, Jun 25
95 °FClear.7 mph41%29.50 "Hg10 mi
10:00 PM93 °FClear.7 mph63%29.50 "Hg10 mi
9:00 PM93 °FClear.8 mph63%29.50 "Hg10 mi
8:00 PM93 °FClear.6 mph56%29.50 "Hg10 mi
7:00 PM95 °FClear.8 mph47%29.50 "Hg10 mi
6:00 PM99 °FSunny.8 mph35%29.47 "Hg10 mi
5:00 PM100 °FSunny.10 mph31%29.47 "Hg10 mi
4:00 PM102 °FSunny.12 mph27%29.47 "Hg10 mi
3:00 PM104 °FSunny.10 mph26%29.47 "Hg10 mi
2:00 PM106 °FPassing clouds.7 mph22%29.50 "HgN/A
1:00 PM102 °FSunny.10 mph31%29.50 "Hg10 mi
12:00 PM106 °FPassing clouds.6 mph18%29.53 "HgN/A
11:00 AM97 °FSunny.10 mph56%29.53 "Hg10 mi
10:00 AM97 °FSunny.8 mph50%29.53 "Hg10 mi
9:00 AM93 °FSunny.9 mph63%29.53 "Hg10 mi
8:00 AM91 °FSunny.12 mph71%29.53 "Hg10 mi
7:00 AM95 °FSunny.2 mph36%29.50 "Hg10 mi
6:00 AM91 °FSunny.2 mph44%29.50 "Hg10 mi
5:00 AM91 °FPassing clouds.6 mph44%29.47 "HgN/A
4:00 AM91 °FClear.2 mph56%29.47 "Hg10 mi
3:00 AM93 °FPassing clouds.6 mph49%29.45 "HgN/A
2:30 AM93 °FPassing clouds.3 mph47%29.45 "HgN/A
2:00 AM93 °FClear.2 mph49%29.45 "Hg10 mi
Weather by CustomWeather, © 2016

See weather overviewHow to use our weather pages